Current weather by "City, St" or "zip code"  
 
Advertise Here

Current Conditions: Martinsville, VA

Fog/Mist


70.0 F

Last Updated on Jul 27 2021, 12:55 am EDT
Humidity: 100%
Wind Speed: N 0.0 mph
Barometer 30.04 in
Dewpoint: 70.2 F
Visibility: 1.50 mi
Precip: --
Heat Index: NA
Wind Chill: NA
Current conditions at:

Martinsville, VA (KMTV)

Lat: 36.63333 Lon: 80.01667

Local Radar Image active severe weather and emergency alerts image image weather storm and storm spotter reports image weather observation monitoring service image
Local
Radar
Active
Alerts
Storm Reports Obs
Monitoring

Sign-up For Email & Text Message Weather Alert Notification Services


Advertise Here

Observation History for Martinsville, VA


Time Wind
(mph)
Vis
(mi)
Weather Precip (in) Temperature (F) Relative
Humidity
Wind
Chill
(F)
Heat
Index
(F)
Pressure
Air Dwpt altimeter
(in)
sea level
(mb)
Rmks
12:55 am EDT N 0.0 1.50 Fog/Mist -- 70.0 70.2 100% NA NA 30.04 M
11:55 pm EDT N 0.0 5.00 Fog/Mist -- 71.0 71.4 100% NA NA 30.03 M
10:55 pm EDT E 3.5 10.00 Fair -- 73.0 72.5 100% NA NA 30.02 M
10:35 pm EDT N 0.0 10.00 Fair -- 73.0 72.9 100% NA NA 30.03 M
9:55 pm EDT W 3.5 10.00 Fair -- 73.0 73.4 100% NA NA 30.03 M
9:35 pm EDT N 0.0 10.00 Fair -- 74.0 73.4 99% NA NA 30.02 M
8:55 pm EDT N 0.0 10.00 Fair -- 74.0 73.6 97% NA NA 30.02 M
7:55 pm EDT N 0.0 10.00 Fair -- 77.0 73.4 90% NA NA 30.01 M
6:55 pm EDT N 0.0 10.00 Fair -- 79.0 72.9 83% NA NA 30.00 M
5:55 pm EDT W 3.5 10.00 Fair -- 82.0 72.1 71% NA 87 29.99 M
5:35 pm EDT W 4.6 10.00 Fair -- 83.0 72.0 70% NA 88 29.98 M
4:55 pm EDT N 3.5 10.00 Fair -- 79.0 72.3 81% NA NA 30.01 M
3:55 pm EDT W 5.8 10.00 Partly Cloudy -- 73.0 68.7 86% NA NA 30.00 M
2:55 pm EDT N 0.0 10.00 Thunderstorm in Vicinity -- 78.0 74.3 90% NA NA 30.01 M
1:35 pm EDT N 0.0 7.00 Light Rain 00.01 80.0 78.4 95% NA 86 30.00 M
12:55 pm EDT N 0.0 10.00 Partly Cloudy -- 84.0 74.7 74% NA 92 30.02 M
11:55 am EDT S 3.5 10.00 Fair -- 85.0 76.6 75% NA 95 30.03 M
10:55 am EDT SW 3.5 10.00 Fair -- 82.0 75.6 82% NA 89 30.04 M
9:55 am EDT SW 4.6 10.00 Partly Cloudy -- 77.0 74.7 94% NA NA 30.04 M
8:55 am EDT SW 3.5 7.00 Mostly Cloudy -- 76.0 74.5 95% NA NA 30.04 M
8:35 am EDT N 0.0 7.00 Partly Cloudy -- 76.0 74.5 96% NA NA 30.04 M
7:55 am EDT N 0.0 7.00 Partly Cloudy -- 74.0 73.8 98% NA NA 30.03 M
6:55 am EDT N 0.0 5.00 Fog/Mist -- 73.0 73.0 100% NA NA 30.02 M
5:55 am EDT N 0.0 5.00 Fog/Mist -- 73.0 72.9 100% NA NA 30.01 M

Regional Weather Observation


Hillsville, VA (KHLX)

Fair
67.0 F

Mount Airy/Surry County Airport, NC (KMWK)

Fair
71.0 F

Virginia Tech Airport, VA (KBCB)

Partly Cloudy
68.0 F

Dublin / New River Valley, VA (KPSK)

Fog/Mist
66.0 F

Reidsville, Rockingham County NC Shiloh Airport, NC (KSIF)

Fog/Mist
70.0 F

Winston Salem, Smith Reynolds Airport, NC (KINT)

Fair
74.0 F
Advertise Here

Advertise Here